| time (UTC) | temp F | wind direction | speed MPH | gust MPH | rain 1hr in | rain 24hr in | rain mn in | humidity % | barometer mb |
| 20260505111547 | 40 | 65 | 1.0 | 2.0 | 0.00 | 0.00 | 0.00 | 55 | 1019.3 |
| 20260505101537 | 41 | 56 | 2.0 | 6.0 | 0.00 | 0.00 | 0.00 | 52 | 1019.0 |
| 20260505100036 | 41 | 54 | 2.0 | 6.0 | 0.00 | 0.00 | 0.00 | 52 | 1018.8 |
| 20260505094534 | 41 | 48 | 3.0 | 6.0 | 0.00 | 0.00 | 0.00 | 53 | 1018.8 |
| 20260505093045 | 41 | 30 | 2.0 | 4.0 | 0.00 | 0.00 | 0.00 | 54 | 1018.7 |
| 20260505091531 | 41 | 4 | 1.0 | 3.0 | 0.00 | 0.00 | 0.00 | 53 | 1018.6 |
| 20260505090032 | 41 | 4 | 1.0 | 3.0 | 0.00 | 0.00 | 0.00 | 52 | 1018.6 |
| 20260505084531 | 41 | 3 | 1.0 | 4.0 | 0.00 | 0.00 | 0.00 | 52 | 1018.6 |
| 20260505083028 | 41 | 21 | 0.0 | 3.0 | 0.00 | 0.00 | 0.00 | 53 | 1018.7 |
| 20260505081527 | 40 | 320 | 0.0 | 2.0 | 0.00 | 0.00 | 0.00 | 51 | 1018.7 |
| 20260505080029 | 40 | 302 | 0.0 | 1.0 | 0.00 | 0.00 | 0.00 | 51 | 1018.7 |
| 20260505074524 | 40 | 302 | 1.0 | 3.0 | 0.00 | 0.00 | 0.00 | 53 | 1018.7 |
| 20260505073021 | 40 | 103 | 0.0 | 1.0 | 0.00 | 0.00 | 0.00 | 49 | 1018.6 |
| 20260505071519 | 40 | 103 | 1.0 | 2.0 | 0.00 | 0.00 | 0.00 | 49 | 1018.5 |
| 20260505070023 | 41 | 65 | 2.0 | 5.0 | 0.00 | 0.00 | 0.00 | 51 | 1018.6 |
| 20260505064514 | 41 | 71 | 6.0 | 10.0 | 0.00 | 0.00 | 0.00 | 50 | 1018.4 |
| 20260505063011 | 41 | 73 | 4.0 | 10.0 | 0.00 | 0.00 | 0.00 | 50 | 1018.2 |
| 20260505061512 | 41 | 63 | 4.0 | 9.0 | 0.00 | 0.00 | 0.00 | 48 | 1018.1 |
| 20260505060005 | 42 | 94 | 4.0 | 9.0 | 0.00 | 0.00 | 0.00 | 48 | 1018.1 |
| 20260505054503 | 42 | 91 | 6.0 | 9.0 | 0.00 | 0.00 | 0.00 | 48 | 1018.0 |
| 20260505053003 | 42 | 81 | 5.0 | 10.0 | 0.00 | 0.00 | 0.00 | 48 | 1017.8 |
| 20260505051600 | 42 | 60 | 6.0 | 11.0 | 0.00 | 0.00 | 0.00 | 48 | 1017.8 |
| 20260505041556 | 44 | 99 | 9.0 | 15.0 | 0.00 | 0.00 | 0.00 | 45 | 1017.5 |
| 20260505040059 | 44 | 62 | 8.0 | 14.0 | 0.00 | 0.00 | 0.00 | 43 | 1017.5 |
| 20260505034546 | 44 | 72 | 9.0 | 15.0 | 0.00 | 0.00 | 0.00 | 44 | 1017.3 |
| 20260505033043 | 44 | 98 | 6.0 | 13.0 | 0.00 | 0.00 | 0.00 | 42 | 1017.1 |
| 20260505031549 | 46 | 63 | 8.0 | 16.0 | 0.00 | 0.00 | 0.00 | 41 | 1017.0 |
| 20260505030040 | 47 | 57 | 10.0 | 16.0 | 0.00 | 0.00 | 0.00 | 38 | 1016.6 |
| 20260505024534 | 48 | 56 | 10.0 | 16.0 | 0.00 | 0.00 | 0.00 | 36 | 1016.5 |
| 20260505023033 | 50 | 76 | 9.0 | 17.0 | 0.00 | 0.00 | 0.00 | 28 | 1016.3 |
| 20260505021536 | 51 | 54 | 11.0 | 17.0 | 0.00 | 0.00 | 0.00 | 26 | 1016.1 |
| 20260505020039 | 52 | 58 | 13.0 | 20.0 | 0.00 | 0.00 | 0.00 | 24 | 1015.8 |
| 20260505014531 | 53 | 58 | 16.0 | 20.0 | 0.00 | 0.00 | 0.00 | 22 | 1015.7 |
| 20260505013030 | 54 | 24 | 15.0 | 24.0 | 0.00 | 0.00 | 0.00 | 22 | 1015.6 |
| 20260505011529 | 55 | 1 | 13.0 | 18.0 | 0.00 | 0.00 | 0.00 | 21 | 1015.6 |
| 20260505010028 | 55 | 20 | 12.0 | 23.0 | 0.00 | 0.00 | 0.00 | 20 | 1015.6 |
| 20260505004529 | 55 | 351 | 10.0 | 18.0 | 0.00 | 0.00 | 0.00 | 27 | 1015.7 |
| 20260505003027 | 55 | 345 | 15.0 | 24.0 | 0.00 | 0.00 | 0.00 | 25 | 1015.7 |
| 20260505001526 | 56 | 352 | 18.0 | 26.0 | 0.00 | 0.00 | 0.00 | 22 | 1015.7 |
| 20260505000039 | 56 | 30 | 20.0 | 27.0 | 0.00 | 0.00 | 0.00 | 22 | 1015.6 |
| 20260504234527 | 55 | 360 | 16.0 | 24.0 | 0.00 | 0.00 | 0.00 | 23 | 1015.8 |
| 20260504233023 | 55 | 16 | 11.0 | 28.0 | 0.00 | 0.00 | 0.00 | 23 | 1015.8 |
| 20260504231522 | 56 | 27 | 19.0 | 25.0 | 0.00 | 0.00 | 0.00 | 25 | 1015.8 |
| 20260504230020 | 54 | 340 | 12.0 | 21.0 | 0.00 | 0.00 | 0.00 | 31 | 1015.8 |
| 20260504224520 | 55 | 335 | 10.0 | 15.0 | 0.00 | 0.00 | 0.00 | 32 | 1015.7 |
| 20260504223019 | 54 | 30 | 16.0 | 26.0 | 0.00 | 0.00 | 0.00 | 30 | 1015.9 |
| 20260504221525 | 54 | 19 | 13.0 | 22.0 | 0.00 | 0.00 | 0.00 | 31 | 1015.9 |
| 20260504220033 | 54 | 20 | 15.0 | 21.0 | 0.00 | 0.00 | 0.00 | 31 | 1015.9 |
| 20260504214516 | 54 | 16 | 12.0 | 20.0 | 0.00 | 0.00 | 0.00 | 32 | 1015.8 |
| 20260504213016 | 54 | 20 | 18.0 | 23.0 | 0.00 | 0.00 | 0.00 | 30 | 1015.9 |
| 20260504211515 | 54 | 39 | 18.0 | 26.0 | 0.00 | 0.00 | 0.00 | 30 | 1015.9 |
| 20260504210013 | 56 | 8 | 16.0 | 22.0 | 0.00 | 0.00 | 0.00 | 29 | 1015.9 |
| 20260504204514 | 55 | 7 | 17.0 | 29.0 | 0.00 | 0.00 | 0.00 | 30 | 1015.8 |
| 20260504203012 | 55 | 34 | 15.0 | 22.0 | 0.00 | 0.00 | 0.00 | 30 | 1015.8 |
| 20260504201512 | 55 | 351 | 10.0 | 25.0 | 0.00 | 0.00 | 0.00 | 33 | 1015.8 |
| 20260504200010 | 55 | 349 | 13.0 | 23.0 | 0.00 | 0.00 | 0.00 | 33 | 1015.7 |
| 20260504194509 | 55 | 335 | 14.0 | 21.0 | 0.00 | 0.00 | 0.00 | 34 | 1015.7 |
| 20260504193009 | 55 | 347 | 17.0 | 24.0 | 0.00 | 0.00 | 0.00 | 31 | 1015.8 |
| 20260504191508 | 56 | 20 | 14.0 | 21.0 | 0.00 | 0.00 | 0.00 | 32 | 1015.8 |
| 20260504190011 | 55 | 18 | 15.0 | 25.0 | 0.00 | 0.00 | 0.00 | 31 | 1015.9 |
| 20260504184507 | 56 | 315 | 12.0 | 25.0 | 0.00 | 0.00 | 0.00 | 32 | 1016.0 |
| 20260504183005 | 56 | 327 | 13.0 | 26.0 | 0.00 | 0.00 | 0.00 | 33 | 1015.9 |
| 20260504181503 | 55 | 346 | 12.0 | 26.0 | 0.00 | 0.00 | 0.00 | 35 | 1016.0 |
| 20260504180002 | 55 | 10 | 14.0 | 24.0 | 0.00 | 0.00 | 0.00 | 34 | 1016.1 |
| 20260504174600 | 55 | 338 | 12.0 | 27.0 | 0.00 | 0.00 | 0.00 | 36 | 1016.1 |
| 20260504173058 | 55 | 12 | 12.0 | 25.0 | 0.00 | 0.00 | 0.00 | 36 | 1016.1 |
| 20260504171556 | 54 | 328 | 12.0 | 16.0 | 0.00 | 0.00 | 0.00 | 39 | 1016.1 |